TimeEDT,TemperatureF,Dew PointF,Humidity,Sea Level PressureIn,VisibilityMPH,Wind Direction,Wind SpeedMPH,Gust SpeedMPH,PrecipitationIn,Events,Conditions,WindDirDegrees,DateUTC
12:15 AM,67.6,63.1,85,29.98,10.0,Calm,Calm,-,N/A,,Mostly Cloudy,0,2013-07-28 04:15:00
12:35 AM,67.5,63.3,87,29.98,10.0,Calm,Calm,-,N/A,,Mostly Cloudy,0,2013-07-28 04:35:00
12:55 AM,67.5,63.1,86,29.97,10.0,Calm,Calm,-,N/A,,Overcast,0,2013-07-28 04:55:00
1:15 AM,66.7,63.0,88,29.96,10.0,Calm,Calm,-,N/A,,Scattered Clouds,0,2013-07-28 05:15:00
1:35 AM,66.4,62.8,88,29.96,10.0,Calm,Calm,-,N/A,,Clear,0,2013-07-28 05:35:00
1:55 AM,66.4,62.6,88,29.96,10.0,Calm,Calm,-,N/A,,Clear,0,2013-07-28 05:55:00
2:15 AM,65.7,62.6,90,29.95,10.0,Calm,Calm,-,N/A,,Clear,0,2013-07-28 06:15:00
2:35 AM,65.3,62.1,89,29.95,10.0,Calm,Calm,-,N/A,,Clear,0,2013-07-28 06:35:00
2:55 AM,65.1,62.1,90,29.95,10.0,Calm,Calm,-,N/A,,Clear,0,2013-07-28 06:55:00
3:15 AM,65.1,62.2,90,29.94,10.0,Calm,Calm,-,N/A,,Scattered Clouds,0,2013-07-28 07:15:00
3:35 AM,65.7,62.6,90,29.94,10.0,Calm,Calm,-,N/A,,Mostly Cloudy,0,2013-07-28 07:35:00
3:55 AM,65.3,62.4,90,29.94,10.0,Calm,Calm,-,N/A,,Scattered Clouds,0,2013-07-28 07:55:00
4:15 AM,65.7,62.6,90,29.94,10.0,Calm,Calm,-,N/A,,Clear,0,2013-07-28 08:15:00
4:35 AM,65.5,62.6,90,29.94,10.0,Calm,Calm,-,N/A,,Clear,0,2013-07-28 08:35:00
4:55 AM,64.8,62.1,91,29.95,7.0,Calm,Calm,-,N/A,,Clear,0,2013-07-28 08:55:00
5:15 AM,65.3,62.6,91,29.95,10.0,Calm,Calm,-,N/A,,Mostly Cloudy,0,2013-07-28 09:15:00
5:35 AM,65.7,62.6,90,29.96,10.0,Calm,Calm,-,N/A,,Overcast,0,2013-07-28 09:35:00
5:55 AM,66.2,62.6,88,29.95,10.0,SE,4.6,-,N/A,,Overcast,140,2013-07-28 09:55:00
6:15 AM,66.2,62.6,88,29.96,10.0,Calm,Calm,-,N/A,,Overcast,0,2013-07-28 10:15:00
6:35 AM,66.2,62.6,88,29.97,10.0,Calm,Calm,-,N/A,,Mostly Cloudy,0,2013-07-28 10:35:00
6:55 AM,66.2,62.8,89,29.97,10.0,SSE,3.5,-,N/A,,Scattered Clouds,150,2013-07-28 10:55:00
7:15 AM,66.4,62.8,88,29.97,10.0,SSE,3.5,-,N/A,,Mostly Cloudy,150,2013-07-28 11:15:00
7:35 AM,67.3,63.1,87,29.98,10.0,South,5.8,-,N/A,,Overcast,180,2013-07-28 11:35:00
7:55 AM,68.2,63.3,84,29.98,10.0,SSW,4.6,-,N/A,Rain,Light Rain,200,2013-07-28 11:55:00
8:15 AM,68.4,63.5,84,29.98,10.0,South,4.6,-,N/A,Rain,Light Rain,190,2013-07-28 12:15:00
8:35 AM,68.9,63.9,84,29.98,10.0,SSW,5.8,-,N/A,,Overcast,200,2013-07-28 12:35:00
8:55 AM,69.1,64.2,84,29.98,10.0,South,4.6,-,N/A,,Overcast,180,2013-07-28 12:55:00
9:15 AM,69.8,64.2,82,29.98,10.0,SSW,5.8,-,N/A,,Mostly Cloudy,210,2013-07-28 13:15:00
9:35 AM,71.6,65.1,80,29.98,10.0,WSW,6.9,-,N/A,,Scattered Clouds,240,2013-07-28 13:35:00
9:55 AM,72.5,64.0,75,29.98,10.0,SW,5.8,-,N/A,,Mostly Cloudy,220,2013-07-28 13:55:00
10:15 AM,74.8,63.5,68,29.98,10.0,WSW,4.6,-,N/A,,Scattered Clouds,250,2013-07-28 14:15:00
10:35 AM,77.2,62.2,60,29.98,10.0,West,6.9,-,N/A,,Scattered Clouds,260,2013-07-28 14:35:00
10:55 AM,75.7,61.5,61,29.98,10.0,West,8.1,-,N/A,,Overcast,280,2013-07-28 14:55:00
11:15 AM,75.6,60.3,59,29.98,10.0,Calm,Calm,-,N/A,,Overcast,0,2013-07-28 15:15:00
11:35 AM,77.5,60.6,56,29.98,10.0,WNW,3.5,-,N/A,,Mostly Cloudy,290,2013-07-28 15:35:00
11:55 AM,78.1,57.7,49,29.98,10.0,WSW,4.6,-,N/A,,Scattered Clouds,250,2013-07-28 15:55:00
12:15 PM,78.8,56.8,47,29.98,10.0,West,5.8,-,N/A,,Clear,260,2013-07-28 16:15:00
12:35 PM,79.9,57.0,45,29.98,10.0,WNW,5.8,-,N/A,,Clear,300,2013-07-28 16:35:00
12:55 PM,80.8,56.5,43,29.98,10.0,SW,9.2,-,N/A,,Clear,220,2013-07-28 16:55:00
1:15 PM,80.8,56.7,43,29.98,10.0,SW,4.6,-,N/A,,Clear,220,2013-07-28 17:15:00
1:35 PM,81.0,57.2,44,29.98,10.0,SW,6.9,-,N/A,,Scattered Clouds,220,2013-07-28 17:35:00
1:55 PM,79.7,57.4,46,29.98,10.0,WSW,6.9,-,N/A,,Mostly Cloudy,240,2013-07-28 17:55:00
2:15 PM,81.1,58.1,45,29.98,10.0,SSW,4.6,-,N/A,,Mostly Cloudy,200,2013-07-28 18:15:00
2:35 PM,82.8,59.2,45,29.96,10.0,SW,8.1,-,N/A,,Scattered Clouds,220,2013-07-28 18:35:00
2:55 PM,83.1,57.7,42,29.96,10.0,WSW,8.1,-,N/A,,Scattered Clouds,250,2013-07-28 18:55:00
3:15 PM,81.7,59.2,46,29.96,10.0,WSW,6.9,-,N/A,,Scattered Clouds,240,2013-07-28 19:15:00
3:35 PM,81.9,58.6,45,29.95,10.0,SSW,9.2,-,N/A,,Mostly Cloudy,210,2013-07-28 19:35:00
3:55 PM,81.5,59.4,47,29.95,10.0,SSW,8.1,-,N/A,,Mostly Cloudy,200,2013-07-28 19:55:00
4:15 PM,81.9,59.5,47,29.95,10.0,SSW,8.1,-,N/A,,Mostly Cloudy,200,2013-07-28 20:15:00
4:35 PM,82.8,58.6,44,29.94,10.0,West,6.9,-,N/A,,Mostly Cloudy,280,2013-07-28 20:35:00
4:55 PM,82.0,58.3,44,29.95,10.0,NW,4.6,-,N/A,,Overcast,310,2013-07-28 20:55:00
5:15 PM,82.9,58.8,44,29.95,10.0,WSW,8.1,-,N/A,,Mostly Cloudy,240,2013-07-28 21:15:00
5:35 PM,81.3,58.3,45,29.96,10.0,SW,6.9,-,N/A,,Scattered Clouds,230,2013-07-28 21:35:00
5:55 PM,80.6,58.1,46,29.96,10.0,West,3.5,-,N/A,,Scattered Clouds,260,2013-07-28 21:55:00
6:15 PM,81.5,58.1,45,29.96,10.0,SW,6.9,-,N/A,,Scattered Clouds,230,2013-07-28 22:15:00
6:35 PM,81.0,58.6,46,29.96,10.0,WSW,6.9,-,N/A,,Scattered Clouds,240,2013-07-28 22:35:00
6:55 PM,80.6,57.4,45,29.96,10.0,WSW,4.6,-,N/A,,Clear,250,2013-07-28 22:55:00
7:15 PM,79.7,57.0,46,29.96,10.0,WSW,6.9,-,N/A,,Clear,250,2013-07-28 23:15:00
7:35 PM,78.8,58.1,49,29.97,10.0,WSW,4.6,-,N/A,,Clear,240,2013-07-28 23:35:00
7:55 PM,76.8,59.0,54,29.98,10.0,WSW,3.5,-,N/A,,Clear,240,2013-07-28 23:55:00
8:15 PM,75.0,59.4,58,29.98,10.0,WSW,3.5,-,N/A,,Clear,240,2013-07-29 00:15:00
8:35 PM,73.9,59.5,61,29.99,10.0,Calm,Calm,-,N/A,,Clear,0,2013-07-29 00:35:00
8:55 PM,72.5,59.4,63,30.00,10.0,Calm,Calm,-,N/A,,Clear,0,2013-07-29 00:55:00
9:15 PM,71.4,59.2,65,30.01,10.0,SW,3.5,-,N/A,,Scattered Clouds,220,2013-07-29 01:15:00
9:35 PM,69.4,59.7,71,30.02,10.0,SW,3.5,-,N/A,,Scattered Clouds,220,2013-07-29 01:35:00
9:55 PM,69.3,59.9,72,30.02,10.0,Calm,Calm,-,N/A,,Mostly Cloudy,0,2013-07-29 01:55:00
10:15 PM,69.1,60.1,73,30.03,10.0,North,3.5,-,N/A,,Mostly Cloudy,360,2013-07-29 02:15:00
10:35 PM,69.3,60.4,73,30.04,10.0,Calm,Calm,-,N/A,,Overcast,0,2013-07-29 02:35:00
10:55 PM,68.4,60.3,75,30.05,10.0,Calm,Calm,-,N/A,,Overcast,0,2013-07-29 02:55:00
11:15 PM,68.5,60.3,75,30.05,10.0,Calm,Calm,-,N/A,,Overcast,0,2013-07-29 03:15:00
11:35 PM,68.4,59.9,74,30.06,10.0,Calm,Calm,-,N/A,,Scattered Clouds,0,2013-07-29 03:35:00
11:55 PM,69.3,58.5,68,30.06,10.0,Calm,Calm,-,N/A,,Clear,0,2013-07-29 03:55:00